Aérodrome :
LOGIN :

S'inscrire | Disclaimer

   EN    FR    IT 

 










Légende :    VFR   VFR Marginal   IFR   IFR Intensif   IFR Très Intensif
Visi : 
Plafond : 
>= 8 km
>= 3000ft
5 à 8 km
1000 à 3000 ft
1500m à 5 km
500 à 1000 ft
800 à 1500m
200 à 500 ft
< 800m
< 200 ft
Symboles :   Orages  Brouillard  Fortes neiges  Fortes précipitations  Vent > 20 kt
SIGMETs :   Divers  Orages  Givrage  Turbulence  Onde Orograph.  Cendres Volcan.







- Altitude de l'aérodrome : 909 ft
- Code IATA : KSF


EDVK - Kassel Calden

DERNIER METAR :
  • 231750Z 17013G23KT 140V200 9999 FEW038 BKN061 13/07 Q1007

METARs EXPIRÉS :
  • 231720Z 18013KT 9999 FEW036 BKN061 12/07 Q1007
  • 231650Z 17015KT 9999 SCT037 BKN061 12/07 Q1006
  • 231620Z 17012KT 9999 FEW031 BKN040 12/07 Q1006
  • 231550Z 18011KT 9999 SCT031 BKN043 12/07 Q1006
  • 231520Z 16010KT 9999 FEW035 SCT049 11/07 Q1006

TAF TAF EDVK
Valide du 23 à 18h jusqu'au 24 à 03h UTC


231700Z 2318/2403 19013KT 9999 BKN030
BECMG 2321/2324 18008KT
Pas de NOTAMs connus pour ce terrain.



MET'MAP, la Météo Aéronautique d'un coup d'oeil ! - Copyright ORBIFLY Décembre 2007 - Disclaimer

ORBIFLY MET'MAP TEAM :

Programmation & Développement : Alexandra Zaïnal
Conception & Développement : Baudouin d'Aumeries
Co-Programmation & Développement : Marc-Olivier Méhu
Soutien technique & logistique : Manuel Goepfert

Contact : metmap@orbifly.com




SOURCES & CREDITS :

   NOAA